Regional Weather Roundup
Issued by NWS Huntsville, AL

Home | Current Version | Previous Version | Text Only | Print | Product List | Glossary On
Versions: 1 2 3 4 5 6 7 8 9 10 11 12 13 14 15 16 17 18 19 20 21 22 23 24 25 26 27 28 29 30 31 32 33 34 35 36 37 38 39 40 41 42 43 44 45 46 47 48 49 50
000
ASUS44 KHUN 271810
RWRHUN

WEATHER ROUNDUP FOR THE TENNESSEE VALLEY
NATIONAL WEATHER SERVICE HUNTSVILLE AL
1200 PM CST TUE JAN 27 2015

ALZ001>004-271900-
NORTHWEST ALABAMA

CITY           SKY/WX    TMP DP  RH WIND       PRES   REMARKS
SHOALS AIRPORT SUNNY     51  31  46 N9G16     30.08S
6HR MIN TEMP:  33; 6HR MAX TEMP:  51;

$$

ALZ005>007-016-271900-
NORTH CENTRAL ALABAMA

CITY           SKY/WX    TMP DP  RH WIND       PRES   REMARKS
DECATUR AP     MOSUNNY   51  31  46 NW18      30.05F
6HR MIN TEMP:  33; 6HR MAX TEMP:  51;

HUNTSVILLE AP  MOSUNNY   52  32  46 NW16G23   30.04F
6HR MIN TEMP:  33; 6HR MAX TEMP:  52;

HUN NWS/UAH      N/A     50  28  43 N12         N/A
MERIDIANVILLE  MOSUNNY   46  30  53 N12G17    30.04F
VINEMONT AP    FAIR      49  31  51 N14G21    30.05S
$$

ALZ008>010-271900-
NORTHEAST ALABAMA

CITY           SKY/WX    TMP DP  RH WIND       PRES   REMARKS
ALBERTVILLE    MOSUNNY   46  36  66 NW16G26   30.00S
FORT PAYNE     PTSUNNY   45  28  53 NW10G20   30.00S
SCOTTSBORO AP  PTSUNNY   46  30  53 NW10G18   30.02F
VALLEY HEAD      N/A     45 N/A N/A MISG        N/A
$$

TNZ076-096-097-271900-
SOUTHEASTERN MIDDLE TENNESSEE

CITY           SKY/WX    TMP DP  RH WIND       PRES   REMARKS
TULLAHOMA      CLOUDY    39  30  70 N15       30.03F WCI  31
WINCHESTER     CLOUDY    39  30  70 N10       30.04R WCI  32
$$

...SURROUNDING SITES...

CITY           SKY/WX    TMP DP  RH WIND       PRES   REMARKS
ATLANTA        PTSUNNY   46  31  55 N16G25    29.95R
ANNISTON       PTSUNNY   51  30  44 N15G25    30.00F
BIRMINGHAM     MOSUNNY   52  32  46 NW17      30.05F
CHATTANOOGA    PTSUNNY   43  31  62 NW15      30.02S
CORINTH        FAIR      52  34  50 N12G17    30.10S
DALTON         CLOUDY    39  34  81 N7G21     30.00S WCI  34
GADSDEN        PTSUNNY   52  30  43 N16G24    30.02R
GOLDEN TRNGL   SUNNY     57  39  51 NW8       30.08F
HALEYVILLE       N/A     50  33  51 N18       30.08S
JACKSON TN     MOSUNNY   50  34  54 N13       30.12F
LEWISBURG      PTSUNNY   45  32  60 NW10      30.05S
MEMPHIS        MOSUNNY   55  36  48 N9        30.14F
MURFREESBORO   CLOUDY    39  32  76 N8        30.06S WCI  33
NASHVILLE      CLOUDY    40  32  73 N9        30.08S WCI  34
OXFORD MS      FAIR      54  34  47 N15       30.13F
ROME           MOSUNNY   48  32  53 N17G26    29.99S
SAVANNAH         N/A     48  34  57 N7        30.10F
TUPELO         SUNNY     55  34  45 NE15G23   30.10F
TUSCALOOSA     MOSUNNY   58  36  43 NW15G22   30.06F
$$

...GULF COAST WEATHER...

CITY           SKY/WX    TMP DP  RH WIND       PRES   REMARKS
GULFPORT       SUNNY     67  38  34 NW15      30.08F
PASCAGOULA     SUNNY     66  38  35 NW12      30.08F
MOBILE         SUNNY     64  35  34 N13G22    30.07F
GULF SHORES    CLEAR     64  38  38 NW8       30.06F
PENSACOLA      SUNNY     65  38  36 NW12      30.04F
DESTIN         SUNNY     65  38  36 NW15      30.02F
PANAMA CITY    SUNNY     62  40  43 NW13G21   30.01F
APPALACHICOLA  SUNNY     68  39  34 NW16G24   29.99F
$$




USA.gov is the U.S. government's official web portal to all federal, state and local government web resources and services.